Date,TemperatureHighF,TemperatureAvgF,TemperatureLowF,DewpointHighF,DewpointAvgF,DewpointLowF,HumidityHigh,HumidityAvg,HumidityLow,PressureMaxIn,PressureMinIn,WindSpeedMaxMPH,WindSpeedAvgMPH,GustSpeedMaxMPH,PrecipitationSumIn
2013-4-1,64.0,54.2,47.0,41.0,35.8,26.7,64,52,25,30.11,29.96,6,1,16,0.00
2013-4-2,61.0,53.0,48.0,43.3,37.0,34.4,64,55,41,30.14,30.09,4,1,10,0.00
2013-4-3,66.0,55.6,48.0,39.5,35.2,23.0,62,48,20,30.13,29.87,4,0,7,0.00
2013-4-4,59.0,54.3,51.0,46.8,40.9,36.3,65,60,51,29.88,29.66,5,1,14,0.45
2013-4-5,58.0,53.3,51.0,44.6,40.8,38.4,68,63,56,29.88,29.74,4,1,12,0.60
2013-4-6,60.0,51.4,46.0,40.0,34.8,23.3,67,54,25,29.92,29.69,6,2,15,0.54
2013-4-7,55.0,47.5,42.0,38.9,33.8,29.7,68,59,43,29.91,29.49,6,1,17,0.43
2013-4-8,56.0,47.3,41.0,38.2,32.2,27.2,69,56,37,30.22,29.91,6,2,17,0.00
2013-4-9,61.0,49.6,38.0,36.6,31.8,26.1,67,52,33,30.27,30.15,5,1,12,0.00
2013-4-10,58.0,52.1,48.0,43.7,34.9,29.6,63,52,41,30.25,30.00,7,2,18,0.26
2013-4-11,57.0,48.9,40.0,37.0,29.7,17.2,64,49,24,30.27,30.13,7,1,18,0.04
2013-4-12,55.0,45.1,37.0,37.8,31.0,24.2,65,58,32,30.14,29.79,4,0,11,0.31
2013-4-13,54.0,46.9,40.0,36.8,32.8,28.0,67,58,44,30.02,29.86,5,1,18,0.48
2013-4-14,58.0,47.7,42.0,37.6,33.1,24.0,68,58,28,30.01,29.91,6,1,13,0.54
2013-4-15,57.0,46.6,37.0,36.4,27.9,5.0,71,51,13,30.14,29.92,9,2,20,0.08
2013-4-16,57.0,46.4,37.0,36.1,20.8,-30.9,68,46,2,30.32,30.12,9,2,22,0.01
2013-4-17,59.0,47.7,36.0,33.5,25.6,1.7,68,45,10,30.39,30.31,6,2,19,0.00
2013-4-18,61.0,51.2,45.0,38.9,32.6,26.8,64,50,31,30.39,30.22,5,1,9,0.06
2013-4-19,59.0,51.9,49.0,43.1,38.4,34.9,67,60,48,30.22,30.06,5,1,14,0.60
2013-4-20,59.0,50.4,46.0,37.9,34.2,30.3,68,54,36,30.26,30.20,7,2,17,0.05
2013-4-21,58.0,50.0,43.0,39.1,33.3,25.7,66,53,34,30.26,30.18,6,1,18,0.04
2013-4-22,61.0,49.7,39.0,32.6,7.1,-44.9,67,33,1,30.37,30.26,8,2,17,0.00
2013-4-23,65.0,50.0,35.0,29.7,-3.8,-46.1,64,27,1,30.32,30.11,9,2,19,0.00
2013-4-24,69.0,53.6,37.0,29.8,-1.9,-43.7,64,26,1,30.23,30.00,8,2,16,0.00
2013-4-25,70.0,54.0,41.0,34.9,22.1,-36.9,61,37,1,30.13,30.00,7,2,17,0.00
2013-4-26,73.0,56.3,46.0,38.7,11.9,-41.8,65,35,1,30.20,30.12,5,1,13,0.00
2013-4-27,60.0,51.5,42.0,38.6,32.9,23.9,62,50,34,30.20,30.16,6,1,13,0.01
2013-4-28,60.0,53.7,50.0,40.2,33.1,18.3,65,48,21,30.19,30.00,9,2,20,0.04
2013-4-29,54.0,49.1,41.0,39.3,26.7,4.2,64,44,13,30.17,29.99,8,2,22,0.20
2013-4-30,58.0,46.5,38.0,32.8,19.2,-15.6,65,39,5,30.38,30.17,8,2,23,0.00